FW9701 Weather Reports


Display with metric or nautical units.
time (UTC)temp
F
wind
direction
speed
MPH
gust
MPH
rain 1hr
in
rain 24hr
in
rain mn
in
humidity
%
barometer
mb
20260906185519 69 182 2.0 7.0 0.00 0.05 0.05 97 1018.4
20260906185024 70 165 3.0 7.0 0.00 0.05 0.05 97 1018.2
20260906184537 70 172 2.0 10.0 0.00 0.05 0.05 97 1018.0
20260906184018 70 154 3.0 13.0 0.00 0.05 0.05 97 1017.8
20260906183524 70 125 5.0 13.0 0.00 0.05 0.05 96 1018.0
20260906183037 71 151 6.0 12.0 0.00 0.05 0.05 95 1018.0
20260906182516 74 222 6.0 12.0 0.00 0.05 0.05 93 1018.2
20260906182017 77 186 2.0 4.0 0.00 0.05 0.05 98 1018.0
20260906181537 77 162 1.0 4.0 0.04 0.05 0.05 98 1017.8
20260906181017 77 188 1.0 5.0 0.05 0.05 0.05 98 1017.8
20260906180518 77 155 2.0 5.0 0.05 0.05 0.05 98 1017.8
20260906180035 77 0 1.0 3.0 0.05 0.05 0.05 98 1017.4
20260906175521 77 224 0.0 4.0 0.05 0.05 0.05 98 1017.2
20260906175020 77 245 2.0 4.0 0.05 0.05 0.05 98 1017.5
20260906174532 77 0 0.0 3.0 0.05 0.05 0.05 98 1017.5
20260906174015 77 0 0.0 4.0 0.05 0.05 0.05 98 1017.7
20260906173516 77 0 0.0 4.0 0.05 0.05 0.05 97 1017.8
20260906173043 77 232 1.0 7.0 0.05 0.05 0.05 96 1017.7
20260906172515 78 241 1.0 7.0 0.05 0.05 0.05 95 1017.6
20260906172017 79 212 3.0 7.0 0.05 0.05 0.05 91 1018.0
20260906171533 79 210 2.0 5.0 0.00 0.00 0.00 89 1018.0
20260906171019 79 200 1.0 5.0 0.00 0.00 0.00 89 1017.8
20260906170514 79 222 2.0 7.0 0.00 0.00 0.00 88 1018.0
20260906170033 80 259 2.0 7.0 0.00 0.00 0.00 89 1017.8
20260906165519 80 186 1.0 5.0 0.00 0.00 0.00 88 1017.9
20260906165019 80 237 0.0 5.0 0.00 0.00 0.00 88 1017.8
20260906164534 80 148 2.0 5.0 0.00 0.00 0.00 88 1017.8
20260906164016 80 221 2.0 5.0 0.00 0.00 0.00 87 1017.6
20260906163515 80 164 2.0 5.0 0.00 0.00 0.00 87 1017.6
20260906163033 80 171 2.0 5.0 0.00 0.00 0.00 87 1017.6
20260906162519 80 174 1.0 6.0 0.00 0.00 0.00 87 1017.4
20260906162015 80 174 3.0 6.0 0.00 0.00 0.00 87 1017.3
20260906161532 80 0 0.0 7.0 0.00 0.00 0.00 88 1017.1
20260906161020 80 160 1.0 7.0 0.00 0.00 0.00 89 1017.0
20260906160517 80 184 2.0 7.0 0.00 0.00 0.00 88 1017.1
20260906160040 80 163 3.0 6.0 0.00 0.00 0.00 88 1017.0
20260906155516 80 170 2.0 6.0 0.00 0.00 0.00 88 1017.0
20260906155025 80 158 0.0 5.0 0.00 0.00 0.00 88 1016.9
20260906154545 79 249 1.0 5.0 0.00 0.00 0.00 89 1016.8
20260906154018 79 163 2.0 4.0 0.00 0.00 0.00 89 1016.7
20260906153518 79 129 1.0 3.0 0.00 0.00 0.00 91 1016.6
20260906153038 78 153 1.0 5.0 0.00 0.00 0.00 91 1016.7
20260906152521 78 0 1.0 9.0 0.00 0.00 0.00 92 1016.6
20260906152015 78 0 2.0 9.0 0.00 0.00 0.00 92 1016.5
20260906151533 78 170 3.0 8.0 0.00 0.00 0.00 93 1016.5
20260906151015 78 164 2.0 5.0 0.00 0.00 0.00 93 1017.0
20260906150515 77 166 1.0 3.0 0.00 0.00 0.00 94 1017.0
20260906150035 77 207 0.0 2.0 0.00 0.00 0.00 94 1017.3
20260906145517 77 0 0.0 3.0 0.00 0.03 0.00 95 1017.2
20260906145016 77 174 0.0 3.0 0.00 0.03 0.00 95 1017.2
20260906144535 77 223 0.0 2.0 0.00 0.03 0.00 95 1017.2
20260906144021 76 157 0.0 3.0 0.00 0.03 0.00 95 1017.2
20260906143519 76 146 0.0 3.0 0.00 0.03 0.00 95 1016.9
20260906143034 76 210 1.0 4.0 0.00 0.03 0.00 95 1016.8
20260906142519 76 178 1.0 4.0 0.00 0.03 0.00 95 1016.7
20260906142018 76 0 1.0 4.0 0.00 0.03 0.00 95 1016.8
20260906141534 76 224 2.0 4.0 0.00 0.03 0.00 96 1016.6
20260906141016 76 0 0.0 4.0 0.00 0.03 0.00 96 1016.4
20260906140521 76 108 1.0 3.0 0.00 0.03 0.00 96 1016.5
20260906140043 76 0 0.0 3.0 0.00 0.03 0.00 96 1016.4
20260906135517 76 176 0.0 4.0 0.00 0.13 0.00 96 1016.4
20260906135016 76 0 1.0 4.0 0.00 0.13 0.00 96 1016.4
20260906134535 76 139 1.0 4.0 0.00 0.13 0.00 96 1016.4
20260906134016 76 148 1.0 5.0 0.00 0.13 0.00 96 1016.4
20260906133515 76 197 2.0 5.0 0.00 0.13 0.00 97 1016.4
20260906133034 75 166 0.0 4.0 0.00 0.13 0.00 97 1016.4
20260906132520 75 0 0.0 4.0 0.00 0.13 0.00 97 1016.4
20260906132015 75 163 1.0 4.0 0.00 0.13 0.00 97 1016.3
20260906131533 75 174 2.0 6.0 0.00 0.13 0.00 97 1016.5
20260906131017 75 160 0.0 6.0 0.00 0.13 0.00 97 1016.4
20260906130515 75 132 1.0 6.0 0.00 0.13 0.00 97 1016.4
20260906130041 75 180 0.0 5.0 0.00 0.13 0.00 97 1016.3
20260906125517 75 0 1.0 5.0 0.00 0.32 0.00 97 1016.3
20260906125021 75 153 1.0 5.0 0.00 0.32 0.00 97 1016.3
20260906124535 75 180 0.0 4.0 0.00 0.32 0.00 97 1016.2
20260906124023 75 161 1.0 4.0 0.00 0.32 0.00 97 1016.2
20260906123517 75 220 1.0 4.0 0.00 0.32 0.00 97 1016.1
20260906123035 75 176 1.0 4.0 0.00 0.32 0.00 97 1016.1
20260906122516 75 0 1.0 4.0 0.00 0.32 0.00 97 1016.1
20260906122019 75 0 1.0 5.0 0.00 0.32 0.00 97 1016.1
20260906121532 75 0 2.0 6.0 0.00 0.32 0.00 97 1016.2
20260906121017 75 161 2.0 6.0 0.00 0.32 0.00 98 1016.0
20260906120516 75 176 1.0 5.0 0.00 0.32 0.00 98 1016.0
20260906120036 75 160 2.0 5.0 0.00 0.32 0.00 98 1015.9
20260906115516 74 191 2.0 6.0 0.00 0.34 0.00 98 1015.9
20260906115020 74 189 2.0 6.0 0.00 0.34 0.00 98 1015.9
20260906114534 74 118 2.0 4.0 0.00 0.34 0.00 98 1015.9
20260906114021 74 200 0.0 4.0 0.00 0.34 0.00 98 1015.8
20260906113516 74 216 1.0 5.0 0.00 0.34 0.00 98 1015.7
20260906113042 74 150 0.0 5.0 0.00 0.34 0.00 98 1015.6
20260906112519 74 161 1.0 5.0 0.00 0.34 0.00 98 1015.6
20260906112024 74 0 0.0 5.0 0.00 0.34 0.00 98 1015.6
20260906111539 74 180 0.0 2.0 0.00 0.34 0.00 98 1015.5
20260906111015 74 170 0.0 4.0 0.00 0.34 0.00 98 1015.4
20260906110516 74 167 0.0 4.0 0.00 0.34 0.00 98 1015.4
20260906110036 74 0 0.0 2.0 0.00 0.34 0.00 98 1015.3
20260906105520 74 146 0.0 4.0 0.00 0.35 0.00 98 1015.3
20260906105016 74 0 0.0 4.0 0.00 0.35 0.00 98 1015.4
20260906104529 74 0 0.0 4.0 0.00 0.35 0.00 98 1015.4
20260906104014 73 157 0.0 2.0 0.00 0.35 0.00 98 1015.4
20260906103519 73 160 0.0 2.0 0.00 0.35 0.00 98 1015.4
20260906103033 73 0 0.0 1.0 0.00 0.35 0.00 98 1015.4
20260906102516 73 0 0.0 1.0 0.00 0.35 0.00 98 1015.3
20260906102016 73 0 0.0 1.0 0.00 0.35 0.00 98 1015.2
20260906101535 73 0 0.0 1.0 0.00 0.35 0.00 98 1015.2
20260906101018 73 160 0.0 1.0 0.00 0.35 0.00 98 1015.3
20260906100516 73 0 0.0 1.0 0.00 0.35 0.00 98 1015.2
20260906100030 73 0 0.0 1.0 0.00 0.35 0.00 98 1015.3
20260906095517 73 0 0.0 1.0 0.00 0.35 0.00 98 1015.2
20260906095018 73 0 0.0 0.0 0.00 0.35 0.00 98 1015.3
20260906094535 73 0 0.0 0.0 0.00 0.35 0.00 98 1015.3
20260906094019 73 0 0.0 0.0 0.00 0.35 0.00 98 1015.3
20260906093517 73 0 0.0 1.0 0.00 0.35 0.00 97 1015.4
20260906093032 73 0 0.0 1.0 0.00 0.35 0.00 97 1015.4
20260906092516 73 0 0.0 0.0 0.00 0.35 0.00 97 1015.6
20260906092016 73 0 0.0 0.0 0.00 0.35 0.00 97 1015.7
20260906091534 73 0 0.0 0.0 0.00 0.35 0.00 97 1015.6
20260906091016 73 0 0.0 0.0 0.00 0.35 0.00 97 1015.6
20260906090516 73 0 0.0 0.0 0.00 0.35 0.00 97 1015.7
20260906090033 73 0 0.0 0.0 0.00 0.35 0.00 97 1015.7
20260906085518 73 0 0.0 0.0 0.00 0.35 0.00 97 1015.7
20260906085023 73 0 0.0 0.0 0.00 0.35 0.00 97 1015.8
20260906084534 73 0 0.0 0.0 0.00 0.35 0.00 97 1015.9
20260906084016 73 0 0.0 0.0 0.00 0.35 0.00 97 1015.8
20260906083523 73 0 0.0 0.0 0.00 0.35 0.00 97 1015.7
20260906083039 73 0 0.0 0.0 0.00 0.35 0.00 97 1015.6
20260906082518 74 0 0.0 2.0 0.00 0.35 0.00 97 1015.6
20260906082019 74 0 0.0 2.0 0.00 0.35 0.00 97 1015.5
20260906081537 73 143 0.0 1.0 0.00 0.35 0.00 97 1015.4
20260906081018 73 0 0.0 1.0 0.00 0.35 0.00 97 1015.3
20260906080519 74 0 0.0 1.0 0.00 0.35 0.00 97 1015.4
20260906080035 74 0 0.0 1.0 0.00 0.35 0.00 97 1015.3
20260906075516 74 0 0.0 1.0 0.00 0.35 0.00 97 1015.2
20260906075018 74 0 0.0 1.0 0.00 0.35 0.00 97 1015.2
20260906074536 74 0 0.0 1.0 0.00 0.35 0.00 97 1015.1
20260906074017 74 0 0.0 0.0 0.00 0.35 0.00 97 1015.1
20260906073518 74 0 0.0 0.0 0.00 0.35 0.00 97 1015.2
20260906073034 74 0 0.0 3.0 0.00 0.35 0.00 97 1015.2
20260906072517 74 0 0.0 3.0 0.00 0.35 0.00 97 1015.3
20260906072017 74 151 0.0 3.0 0.00 0.35 0.00 97 1015.4
20260906071538 74 174 0.0 3.0 0.00 0.35 0.00 96 1015.4
20260906071019 73 183 0.0 3.0 0.00 0.35 0.00 96 1015.4
20260906070516 73 0 0.0 2.0 0.00 0.35 0.00 96 1015.5
20260906070033 73 162 0.0 2.0 0.00 0.35 0.00 96 1015.5
20260906065518 73 0 0.0 2.0 0.00 0.35 0.00 96 1015.5
20260906065016 73 0 0.0 1.0 0.00 0.35 0.00 96 1015.5
20260906064536 73 0 0.0 1.0 0.00 0.35 0.00 96 1015.5
20260906064018 73 156 0.0 0.0 0.00 0.35 0.00 96 1015.7
20260906063516 73 0 0.0 0.0 0.00 0.35 0.00 96 1015.7
20260906063031 73 0 0.0 0.0 0.00 0.35 0.00 96 1015.6
20260906062519 73 0 0.0 0.0 0.00 0.35 0.00 95 1015.7
20260906062019 73 0 0.0 0.0 0.00 0.35 0.00 95 1015.7
20260906061535 73 0 0.0 0.0 0.00 0.35 0.00 95 1015.7
20260906061019 73 0 0.0 0.0 0.00 0.35 0.00 95 1015.7
20260906060516 73 0 0.0 0.0 0.00 0.35 0.00 94 1015.6
20260906060034 73 0 0.0 0.0 0.00 0.35 0.00 94 1015.7
20260906055515 73 0 0.0 0.0 0.00 0.35 0.00 94 1015.6
20260906055016 73 0 0.0 1.0 0.00 0.35 0.00 94 1015.7
20260906054534 73 0 0.0 1.0 0.00 0.35 0.00 94 1015.8
20260906054015 73 0 0.0 0.0 0.00 0.35 0.00 94 1015.7
20260906053520 73 0 0.0 1.0 0.00 0.35 0.00 93 1015.7
20260906053036 73 0 0.0 1.0 0.00 0.35 0.00 93 1015.8
20260906052516 73 0 0.0 1.0 0.00 0.35 0.00 93 1015.7
20260906052021 74 0 0.0 1.0 0.00 0.35 0.00 93 1015.7
20260906051534 74 0 0.0 1.0 0.00 0.35 0.00 93 1015.8
20260906051016 74 0 0.0 0.0 0.00 0.35 0.00 92 1015.8
20260906050516 74 0 0.0 1.0 0.00 0.35 0.00 92 1015.8
20260906050054 74 0 0.0 1.0 0.00 0.35 0.00 92 1015.8
20260906045516 74 131 0.0 1.0 0.00 0.35 0.35 92 1015.8
20260906045015 74 0 0.0 1.0 0.00 0.35 0.35 92 1015.8
20260906044533 74 160 0.0 1.0 0.00 0.35 0.35 91 1015.8
20260906044017 74 0 0.0 1.0 0.00 0.35 0.35 91 1015.9
20260906043514 74 0 0.0 0.0 0.00 0.35 0.35 91 1015.9
20260906043032 74 0 0.0 0.0 0.00 0.35 0.35 90 1015.9
20260906042515 74 0 0.0 2.0 0.00 0.35 0.35 90 1015.9
20260906042019 74 0 0.0 2.0 0.00 0.35 0.35 90 1016.1
20260906041532 75 174 0.0 2.0 0.00 0.35 0.35 90 1016.1
20260906041019 75 167 0.0 2.0 0.00 0.35 0.35 90 1016.1
20260906040516 75 0 0.0 2.0 0.00 0.35 0.35 90 1016.1
20260906040036 75 0 0.0 1.0 0.00 0.35 0.35 89 1016.1
20260906035516 75 160 0.0 1.0 0.00 0.35 0.35 89 1016.1
20260906035018 75 0 0.0 2.0 0.00 0.35 0.35 89 1016.1
20260906034540 75 169 0.0 2.0 0.00 0.35 0.35 89 1016.1
20260906034016 75 0 0.0 2.0 0.00 0.35 0.35 88 1016.1
20260906033516 75 0 0.0 2.0 0.00 0.35 0.35 88 1016.1
20260906033034 75 0 0.0 1.0 0.00 0.35 0.35 88 1016.0
20260906032519 75 0 0.0 1.0 0.00 0.35 0.35 88 1015.9
20260906032019 75 0 0.0 1.0 0.00 0.35 0.35 88 1015.8
20260906031539 75 0 0.0 1.0 0.00 0.35 0.35 87 1015.9
20260906031019 75 0 0.0 1.0 0.00 0.35 0.35 87 1015.9
20260906030519 75 0 0.0 1.0 0.00 0.35 0.35 87 1015.8
20260906030032 75 0 0.0 1.0 0.00 0.35 0.35 87 1015.8
20260906025516 76 0 0.0 1.0 0.00 0.35 0.35 87 1015.9
20260906025018 76 0 0.0 1.0 0.00 0.35 0.35 86 1015.9
20260906024537 76 0 0.0 1.0 0.00 0.35 0.35 86 1015.9
20260906024019 76 0 0.0 1.0 0.00 0.35 0.35 86 1015.8
20260906023520 76 0 0.0 1.0 0.00 0.35 0.35 85 1015.7
20260906023038 76 0 0.0 1.0 0.00 0.35 0.35 85 1015.6
20260906022516 76 0 0.0 0.0 0.00 0.35 0.35 85 1015.6
20260906022019 77 0 0.0 1.0 0.00 0.35 0.35 84 1015.6
20260906021534 77 0 0.0 1.0 0.00 0.35 0.35 84 1015.7
20260906021015 77 0 0.0 0.0 0.00 0.35 0.35 83 1015.5
20260906020518 77 0 0.0 0.0 0.00 0.35 0.35 82 1015.6
20260906020034 77 0 0.0 0.0 0.00 0.35 0.35 82 1015.5
20260906015515 78 0 0.0 0.0 0.00 0.35 0.35 81 1015.4
20260906015015 78 0 0.0 0.0 0.00 0.35 0.35 80 1015.5
20260906014535 78 0 0.0 1.0 0.00 0.35 0.35 80 1015.4
20260906014018 79 0 0.0 1.0 0.00 0.35 0.35 79 1015.3
20260906013519 79 0 0.0 1.0 0.00 0.35 0.35 79 1015.2
20260906013104 79 0 0.0 1.0 0.00 0.35 0.35 78 1015.3
20260906012516 79 0 0.0 1.0 0.00 0.35 0.35 78 1015.3
20260906012018 80 0 0.0 2.0 0.00 0.35 0.35 77 1015.1
20260906011536 80 0 0.0 2.0 0.00 0.35 0.35 77 1015.2
20260906011017 80 124 0.0 2.0 0.00 0.35 0.35 76 1015.1
20260906010519 81 140 0.0 5.0 0.00 0.35 0.35 75 1015.0
20260906010031 81 0 1.0 5.0 0.00 0.35 0.35 75 1015.1
20260906005524 81 161 1.0 4.0 0.00 0.35 0.35 74 1015.0
20260906005019 81 0 0.0 3.0 0.00 0.35 0.35 74 1015.0
20260906004536 82 0 0.0 4.0 0.00 0.35 0.35 73 1014.9
20260906004025 82 0 1.0 4.0 0.00 0.35 0.35 73 1014.8
20260906003522 82 169 2.0 4.0 0.00 0.35 0.35 72 1014.7
20260906003033 83 131 2.0 5.0 0.00 0.35 0.35 71 1014.6
20260906002518 83 162 3.0 5.0 0.00 0.35 0.35 70 1014.5
20260906002016 83 146 2.0 5.0 0.00 0.35 0.35 69 1014.5
20260906001532 84 139 1.0 5.0 0.00 0.35 0.35 69 1014.5
20260906001015 84 144 1.0 6.0 0.00 0.35 0.35 69 1014.5
20260906000514 84 179 2.0 6.0 0.00 0.35 0.35 68 1014.6
20260906000033 84 186 1.0 7.0 0.00 0.35 0.35 67 1014.6
20260905235516 85 178 2.0 9.0 0.00 0.35 0.35 66 1014.4
20260905235016 85 261 3.0 9.0 0.00 0.35 0.35 65 1014.5
20260905234534 86 132 4.0 9.0 0.00 0.35 0.35 63 1014.5
20260905234017 86 206 2.0 7.0 0.00 0.35 0.35 62 1014.6
20260905233516 87 171 4.0 8.0 0.00 0.35 0.35 62 1014.6
20260905233030 87 84 2.0 8.0 0.00 0.35 0.35 62 1014.5
20260905232521 88 215 2.0 7.0 0.00 0.35 0.35 61 1014.5
20260905232019 88 161 2.0 7.0 0.00 0.35 0.35 60 1014.4
20260905231533 89 151 3.0 7.0 0.00 0.35 0.35 59 1014.5
20260905231015 89 142 2.0 6.0 0.00 0.35 0.35 58 1014.5
20260905230516 90 49 2.0 6.0 0.00 0.35 0.35 59 1014.4
20260905230034 90 198 3.0 7.0 0.00 0.35 0.35 56 1014.4
20260905225515 90 129 3.0 8.0 0.00 0.35 0.35 55 1014.4
20260905225018 91 158 2.0 8.0 0.00 0.35 0.35 54 1014.4
20260905224535 90 184 3.0 10.0 0.00 0.35 0.35 53 1014.3
20260905224015 90 203 3.0 10.0 0.00 0.35 0.35 54 1014.3
20260905223524 90 162 4.0 10.0 0.00 0.35 0.35 53 1014.3
20260905223034 90 173 4.0 9.0 0.00 0.35 0.35 52 1014.2
20260905222517 90 181 3.0 10.0 0.00 0.35 0.35 52 1014.3
20260905222017 90 183 4.0 10.0 0.00 0.35 0.35 51 1014.2
20260905221531 91 155 5.0 10.0 0.00 0.35 0.35 50 1014.0
20260905221016 91 201 5.0 10.0 0.00 0.35 0.35 49 1014.0
20260905220516 91 160 4.0 9.0 0.00 0.35 0.35 49 1014.0
20260905220035 92 146 4.0 11.0 0.00 0.35 0.35 50 1014.0
20260905215519 92 173 4.0 11.0 0.00 0.35 0.35 48 1013.9
20260905215018 92 155 3.0 5.0 0.00 0.35 0.35 51 1013.9
20260905214531 92 160 3.0 5.0 0.00 0.35 0.35 51 1014.0
20260905214018 92 156 3.0 7.0 0.00 0.35 0.35 50 1013.9
20260905213518 91 177 3.0 7.0 0.00 0.35 0.35 50 1014.0
20260905213032 92 182 3.0 6.0 0.00 0.35 0.35 49 1014.0
20260905212515 92 167 3.0 7.0 0.00 0.35 0.35 49 1014.0
20260905212023 91 190 3.0 7.0 0.00 0.35 0.35 48 1014.0
20260905211531 92 180 3.0 8.0 0.00 0.35 0.35 48 1014.0
20260905211016 91 117 3.0 8.0 0.00 0.35 0.35 50 1014.0
20260905210520 91 155 3.0 7.0 0.00 0.35 0.35 49 1014.0
20260905210042 91 174 4.0 8.0 0.00 0.35 0.35 50 1014.1
20260905205521 90 158 3.0 8.0 0.00 0.35 0.35 52 1014.1
20260905205018 90 184 4.0 8.0 0.00 0.35 0.35 50 1014.1
20260905204531 90 176 2.0 6.0 0.00 0.35 0.35 51 1014.0
20260905204015 90 176 3.0 6.0 0.00 0.35 0.35 51 1014.0
20260905203515 90 158 3.0 7.0 0.00 0.35 0.35 51 1013.8
20260905203034 89 166 3.0 7.0 0.00 0.35 0.35 52 1013.8
20260905202519 89 0 1.0 6.0 0.00 0.35 0.35 55 1013.9
20260905202019 88 157 2.0 6.0 0.00 0.35 0.35 55 1013.8
20260905201539 88 165 2.0 7.0 0.00 0.35 0.35 56 1013.9
20260905201016 88 136 3.0 7.0 0.00 0.35 0.35 56 1013.8
20260905200521 88 179 3.0 8.0 0.00 0.35 0.35 56 1013.8
20260905200041 88 161 3.0 8.0 0.00 0.35 0.35 56 1014.1
20260905195517 88 143 3.0 8.0 0.00 0.35 0.35 56 1014.2
20260905195019 88 162 3.0 8.0 0.00 0.35 0.35 56 1014.1
20260905194532 88 161 3.0 6.0 0.00 0.35 0.35 56 1014.1
20260905194017 88 181 3.0 7.0 0.00 0.35 0.35 58 1014.2
20260905193515 87 336 3.0 13.0 0.00 0.35 0.35 58 1014.1
20260905193033 87 205 5.0 13.0 0.00 0.35 0.35 60 1014.0
20260905192523 87 161 4.0 8.0 0.00 0.35 0.35 58 1014.0
20260905192021 86 164 2.0 6.0 0.00 0.35 0.35 61 1014.0
20260905191536 86 0 1.0 9.0 0.00 0.35 0.35 62 1013.8
20260905191016 86 207 2.0 9.0 0.00 0.35 0.35 62 1013.8
20260905190516 85 169 3.0 10.0 0.00 0.35 0.35 61 1013.7
20260905190035 85 71 3.0 10.0 0.00 0.35 0.35 63 1013.8